Regional Weather Roundup
Issued by NWS

Home | Current Version | Previous Version | Graphics & Text | Print | Product List | Glossary On
Versions: 1 2 3 4 5 6 7 8 9 10 11 12 13 14 15 16 17 18 19 20 21 22 23 24 25 26 27 28 29 30 31 32 33 34 35 36 37 38 39 40 41 42 43 44 45 46 47 48 49 50
000
ASUS44 KMEG 221000
RWRTN
TENNESSEE HOURLY STATE WEATHER ROUNDUP
NATIONAL WEATHER SERVICE MEMPHIS TN
500 AM CDT TUE AUG 22 2017

TNZ002-004-019-021-049-052-054-088>092-221100-
WEST TENNESSEE

CITY           SKY/WX    TMP DP  RH WIND       PRES   REMARKS
MEMPHIS INTL   CLEAR     77  73  87 S10       30.02F
NWS MEMPHIS      N/A     76 N/A N/A MISG        N/A
JACKSON        CLEAR     76  74  93 S8        30.02F
DYERSBURG      CLEAR     77  73  87 CALM      30.02R
$$

TNZ008-025-027-028-033-062-065-066-221100-
NORTH MIDDLE TENNESSEE

CITY           SKY/WX    TMP DP  RH WIND       PRES   REMARKS
NASHVILLE      CLEAR     73  68  84 S7        30.05F
CLARKSVILLE    CLEAR     75  70  84 S8        30.02S
SMYRNA         CLEAR     72  69  90 S6        30.07S
CROSSVILLE     CLEAR     66  65  96 CALM      30.16R
$$

TNZ061-075-076-078-094-096-097-221100-
SOUTH MIDDLE TENNESSEE

CITY           SKY/WX    TMP DP  RH WIND       PRES   REMARKS
TULLAHOMA      CLEAR     70  64  83 CALM      30.11S
WINCHESTER     CLEAR     72  70  94 CALM      30.10S
$$

TNZ017-018-042-046-047-221100-
NORTHEAST TENNESSEE

CITY           SKY/WX    TMP DP  RH WIND       PRES   REMARKS
TRI CITIES     PTCLDY    67  66  97 CALM      30.14S
$$

TNZ012-013-036-069-073-074-221100-
CENTRAL EAST TENNESSEE

CITY           SKY/WX    TMP DP  RH WIND       PRES   REMARKS
KNOXVILLE      MOCLDY    74  68  81 CALM      30.10R
OAK RIDGE      CLEAR     71  68  90 CALM      30.12S
GATLINBURG     CLEAR     66  64  94 CALM      30.11R
$$

TNZ083-085-099-221100-
SOUTHEAST TENNESSEE

CITY           SKY/WX    TMP DP  RH WIND       PRES   REMARKS
CHATTANOOGA    PTCLDY    73  70  90 CALM      30.10R
$$

SKY/WX REPORTED AS FAIR MEANS FEW OR NO CLOUDS BELOW
12 THOUSAND FEET.




USA.gov is the U.S. government's official web portal to all federal, state and local government web resources and services.